Flag for U.S.A. Weather past 2 weeks in Ann Arbor, Michigan, U.S.A.

Now
50 °F

Overcast.


Feels Like: 44 °F
Forecast: 44 / 62 °F
Wind: 17 mph from Northwest

Location: Ann Arbor Municipal Airport

Current Time: Sep 22, 2014 at 12:17:49 AM

Latest Report: Sep 21, 2014 at 11:53 PM


Visibility: 10 mi

Pressure: 30.02 "Hg

Humidity: 74%

Dew point: 42 °F

Location of Ann ArborLocation

Historic Weather in Ann Arbor — Graph

°F

Ann Arbor temperature yesterday

Maximum temperature yesterday: 66 °F (at 12:53 AM)
Minimum temperature yesterday: 50 °F (at 10:53 PM)
Average temperature yesterday: 61 °F

Past Weeks' High & Low Weather Summary

 TemperatureHumidityPressure
High78 °F (Sep 20, 1:53 PM)100% (Sep 19, 11:58 PM)30.35 "Hg (Sep 19, 11:58 PM)
Low32 °F (Sep 17, 7:00 AM)39% (Sep 17, 4:53 PM)29.58 "Hg (Sep 10, 10:53 PM)
Average57 °F75%30.07 "Hg
* Reported Sep 8 10:53 AM — Sep 21 10:53 PM, Ann Arbor, Weather by CustomWeather, © 2014

Note: Actual official high and low records may vary slightly from our data, if they occured in-between our weather recording intervals... More about our weather records

Advertising

Ann Arbor weather history for previous 24 hours

 ConditionsComfort  
Time TempWeatherWind HumidityBarometerVisibility
10:53 PM
Sep 21
50 °FMostly cloudy.14 mph77%30.00 "Hg10 mi
9:53 PM52 °FOvercast.12 mph77%29.96 "Hg10 mi
8:53 PM53 °FOvercast.10 mph80%29.93 "Hg10 mi
7:53 PM53 °FCloudy.18 mph83%29.90 "Hg10 mi
6:53 PM56 °FMostly cloudy.20 mph84%29.85 "Hg8 mi
5:53 PM58 °FHeavy rain. Mostly cloudy.23 mph84%29.79 "Hg2 mi
4:53 PM62 °FBroken clouds.13 mph78%29.75 "Hg10 mi
3:53 PM60 °FLight rain. Cloudy.21 mph80%29.72 "Hg9 mi
2:53 PM60 °FCloudy.12 mph83%29.70 "Hg10 mi
1:53 PM62 °FMostly cloudy.16 mph65%29.70 "Hg10 mi
12:53 PM61 °FLight rain. Mostly cloudy.21 mph62%29.70 "Hg10 mi
11:53 AM64 °FPartly sunny.18 mph56%29.69 "Hg10 mi
10:53 AM66 °FPassing clouds.18 mph63%29.67 "Hg10 mi
9:53 AM65 °FScattered clouds.20 mph68%29.67 "Hg10 mi
8:53 AM63 °FCloudy.12 mph78%29.67 "Hg10 mi
7:53 AM64 °FPassing clouds.14 mph81%29.65 "Hg10 mi
7:00 AM66 °FPassing clouds.16 mph78%29.63 "Hg10 mi
4:53 AM66 °FLow clouds.9 mph90%29.61 "Hg10 mi
3:53 AM65 °FLow clouds.7 mph91%29.65 "Hg10 mi
2:53 AM66 °FLow clouds.8 mph87%29.69 "Hg10 mi
1:53 AM65 °FLow clouds.9 mph91%29.73 "Hg10 mi
12:53 AM66 °FLow clouds.13 mph87%29.76 "Hg10 mi
Weather by CustomWeather, © 2014

See weather overviewHow to use our weather pages